Voltar ao catálogo

CHINASAT 1E

AtivoComunicaçõesGEO
NORAD 53813·PAYLOAD·🇨🇳 China

Lançado Sep 13, 2022 de Wenchang Space Launch Site

Loading…

TLE

AtualizadoSource: Space-Track

Época: Sep 14, 2026, 22:44 UTC

1 53813U 22112A   26257.94765419 -.00000157  00000-0  00000-0 0  9999
2 53813   0.0544 304.1761 0002592 323.1144 149.1925  1.00273588 14744

Acompanhe CHINASAT 1E em tempo real com AllMySat

Download on the App Store